Weather in Nedoharky

Ukraine / Kirovohrad Region     48°47′03″N   33°15′40″E
temp.,
°C
wind,
m/s
gust,
m/s
humid.,
%
clouds,
%
prec.,
mm/h
press.,
hPa
HPBL,
m
24 october, sun
sun2400:00+7wnw36531 0.0 1021110
03:00+5wnw36609 0.0 1022106
06:00+4wnw3766100 0.0 1023156
09:00+5wnw486610 0.0 1024291
12:00+9nw67525 0.0 10241328
15:00+10nnw685072 0.1 10241572
18:00+7nnw7106376 0.3 10261054
21:00+5nnw796891 0.3 10281068
25 october, mon
mon2500:00+6nnw6859100 0.0 10291120
03:00+5nnw587251 0.1 1030566
06:00+2n38825 0.0 1032245
09:00+3n46705 0.0 1033440
12:00+6n45485 0.0 1034908
15:00+7n33410 0.0 10331063
18:00+5nnw22520 0.0 103329
21:00+3n11580 0.0 103410
26 october, tue
tue2600:00+3se11590 0.0 103410
03:00+2sse11590 0.0 103410
06:00+1sse22620 0.0 103311
09:00+3sse34540 0.0 1033136
12:00+8s45355 0.0 1032734
15:00+10s44291 0.0 1030956
18:00+6sse33380 0.0 102930
21:00+5sse35410 0.0 102970
27 october, wed
wed2700:00+3s35440 0.0 102979
03:00+2s36590 0.0 102988
06:00+1sse34690 0.0 102862
09:00+3sse35580 0.0 1028162
12:00+9s45440 0.0 1026633
15:00+11ssw34397 0.0 1024941
18:00+7sw2252100 0.0 102412
21:00+7wsw2259100 0.0 102416
28 october, thu
thu2800:00+6wnw2365100 0.0 102425
03:00+5nw34804 0.0 102453
06:00+4nnw47905 0.0 1025128
09:00+6n488066 0.0 1026297
12:00+10n57605 0.0 1027739
15:00+11n56516 0.0 10261211
18:00+8nnw346525 0.0 102763
21:00+7nnw22739 0.0 102717